Location: Carbonear
(47.7333°N, 53.2500°W)
Time: 03:22:06
(UTC+00:00)

XW-2D - Pass Details

Date: 07 December 2022
Orbit: 489 x 502 km, 97.5° (Epoch: 28 January)

Event Time Altitude Azimuth Distance (km) Brightness Sun altitude
Rises 09:53:07 0° 12° (NNE) 2,577 ? -12.0°
Reaches altitude 10° 09:55:12 10° 12° (NNE) 1,690 ? -11.6°
Maximum altitude 09:58:50 86° 286° (WNW) 498 ? -11.1°
Drops below altitude 10° 10:02:27 10° 196° (SSW) 1,679 ? -10.5°
Sets 10:04:30 0° 196° (SSW) 2,558 ? -10.2°
